RYR84KK LEAM-EBCI

Flight info

Callsign RYR84KK
Flight time 2h 24m
Altitude 38000
Route ESILA N865 VTB DCT RBO DCT OSTIX DCT GASMO DCT DGO N858 ABRIX DCT CNA DCT ADABI DCT BOKNO UN858 VANAD UN874 BAMES UT191 PODEM UN873 BAZOS DCT BELDI DCT VEKIN Z173 ARVOL
Aircraft B738/M-SDE2E3FGHIRWXY/LB1

Departure

Time 2026-04-22 17:10
Airport Almería Airport (LEAM)

Arrival

Time 2026-04-22 19:34
Airport Brussels South Charleroi Airport (EBCI)
Time Latitude Longitude Altitude Speed Heading
2026-04-22 16:52 36.84632 -2.37331 59 ft 0 kts 114°
2026-04-22 17:04 36.84624 -2.37309 61 ft 8 kts 115°
2026-04-22 17:04 36.84593 -2.37249 64 ft 9 kts 103°
2026-04-22 17:05 36.84603 -2.37180 64 ft 9 kts 73°
2026-04-22 17:05 36.84620 -2.37109 61 ft 9 kts 72°
2026-04-22 17:05 36.84642 -2.37023 63 ft 12 kts 72°
2026-04-22 17:05 36.84635 -2.36920 62 ft 13 kts 128°
2026-04-22 17:06 36.84616 -2.36817 61 ft 13 kts 78°
2026-04-22 17:06 36.84641 -2.36713 58 ft 12 kts 73°
2026-04-22 17:06 36.84666 -2.36612 63 ft 12 kts 72°
2026-04-22 17:06 36.84691 -2.36513 62 ft 12 kts 72°
2026-04-22 17:07 36.84716 -2.36414 62 ft 13 kts 72°
2026-04-22 17:07 36.84745 -2.36298 62 ft 15 kts 73°
2026-04-22 17:07 36.84777 -2.36160 61 ft 18 kts 73°
2026-04-22 17:07 36.84815 -2.36001 62 ft 19 kts 73°
2026-04-22 17:08 36.84854 -2.35842 64 ft 19 kts 73°
2026-04-22 17:08 36.84893 -2.35689 64 ft 18 kts 73°
2026-04-22 17:08 36.84929 -2.35543 61 ft 18 kts 73°
2026-04-22 17:08 36.84946 -2.35397 61 ft 17 kts 105°
2026-04-22 17:09 36.84857 -2.35322 57 ft 16 kts 178°
2026-04-22 17:09 36.84789 -2.35407 58 ft 27 kts 249°
2026-04-22 17:09 36.84735 -2.35631 53 ft 57 kts 253°
2026-04-22 17:09 36.84457 -2.36759 60 ft 144 kts 253°
2026-04-22 17:10 36.84090 -2.38145 280 ft 177 kts 250°
2026-04-22 17:10 36.83826 -2.39064 948 ft 165 kts 248°
2026-04-22 17:10 36.83439 -2.40461 1464 ft 184 kts 252°
2026-04-22 17:10 36.83059 -2.42093 1822 ft 204 kts 255°
2026-04-22 17:11 36.82693 -2.43849 2270 ft 214 kts 256°
2026-04-22 17:11 36.82297 -2.45686 2574 ft 231 kts 252°
2026-04-22 17:11 36.81820 -2.47590 2879 ft 243 kts 252°
2026-04-22 17:11 36.81325 -2.49547 3452 ft 244 kts 252°
2026-04-22 17:12 36.80818 -2.51568 4025 ft 245 kts 254°
2026-04-22 17:12 36.80746 -2.53745 4259 ft 262 kts 287°
2026-04-22 17:12 36.81684 -2.55728 4682 ft 270 kts 306°
2026-04-22 17:12 36.82847 -2.57558 5150 ft 273 kts 307°
2026-04-22 17:13 36.84026 -2.59389 5766 ft 269 kts 307°
2026-04-22 17:13 36.85192 -2.61220 6405 ft 266 kts 307°
2026-04-22 17:13 36.86326 -2.63025 6997 ft 262 kts 306°
2026-04-22 17:13 36.87442 -2.64823 7609 ft 259 kts 306°
2026-04-22 17:14 36.88517 -2.66571 8227 ft 258 kts 305°
2026-04-22 17:14 36.89623 -2.68383 8910 ft 265 kts 305°
2026-04-22 17:14 36.90756 -2.70251 9596 ft 273 kts 304°
2026-04-22 17:14 36.91919 -2.72172 10242 ft 281 kts 304°
2026-04-22 17:15 36.92705 -2.73474 10652 ft 286 kts 304°
2026-04-22 17:15 36.94354 -2.76216 11072 ft 313 kts 304°
2026-04-22 17:15 36.95718 -2.78492 11267 ft 336 kts 304°
2026-04-22 17:15 36.97146 -2.80871 11851 ft 343 kts 304°
2026-04-22 17:16 36.98591 -2.83277 12535 ft 348 kts 304°
2026-04-22 17:16 37.00007 -2.85635 13277 ft 351 kts 304°
2026-04-22 17:16 37.01398 -2.87955 13958 ft 354 kts 304°
2026-04-22 17:16 37.02886 -2.90441 14606 ft 359 kts 304°
2026-04-22 17:17 37.04388 -2.92952 15335 ft 360 kts 304°
2026-04-22 17:17 37.05894 -2.95471 16122 ft 360 kts 304°
2026-04-22 17:17 37.07398 -2.97990 16811 ft 363 kts 304°
2026-04-22 17:17 37.08805 -3.00351 17419 ft 366 kts 304°
2026-04-22 17:18 37.10337 -3.02922 18099 ft 369 kts 304°
2026-04-22 17:18 37.11856 -3.05474 18706 ft 370 kts 304°
2026-04-22 17:18 37.13407 -3.08080 19269 ft 374 kts 304°
2026-04-22 17:18 37.14969 -3.10706 19847 ft 377 kts 304°
2026-04-22 17:19 37.18128 -3.16027 20937 ft 383 kts 304°
2026-04-22 17:19 37.21312 -3.21396 22005 ft 388 kts 304°
2026-04-22 17:20 37.24575 -3.26917 23066 ft 394 kts 303°
2026-04-22 17:20 37.27247 -3.32884 23985 ft 396 kts 295°
2026-04-22 17:21 37.28457 -3.36002 24416 ft 398 kts 295°
2026-04-22 17:21 37.30916 -3.42288 25248 ft 402 kts 295°
2026-04-22 17:22 37.33440 -3.48634 26015 ft 408 kts 295°
2026-04-22 17:22 37.34719 -3.51838 26422 ft 410 kts 295°
2026-04-22 17:22 37.37397 -3.58155 27147 ft 416 kts 306°
2026-04-22 17:23 37.39515 -3.60677 27493 ft 424 kts 324°
2026-04-22 17:23 37.45111 -3.63190 28246 ft 440 kts 353°
2026-04-22 17:23 37.48186 -3.63227 28616 ft 444 kts 357°
2026-04-22 17:24 37.51293 -3.63139 28919 ft 447 kts 358°
2026-04-22 17:24 37.54383 -3.63041 29217 ft 449 kts 358°
2026-04-22 17:24 37.57524 -3.62969 29572 ft 451 kts 357°
2026-04-22 17:24 37.60685 -3.62930 29889 ft 453 kts 356°
2026-04-22 17:25 37.63811 -3.62905 30168 ft 455 kts 356°
2026-04-22 17:25 37.66976 -3.62884 30491 ft 455 kts 356°
2026-04-22 17:25 37.70130 -3.62860 30937 ft 452 kts 356°
2026-04-22 17:25 37.73274 -3.62835 31384 ft 449 kts 356°
2026-04-22 17:26 37.76399 -3.62810 31758 ft 448 kts 356°
2026-04-22 17:26 37.79523 -3.62785 32094 ft 448 kts 356°
2026-04-22 17:26 37.82632 -3.62761 32453 ft 447 kts 356°
2026-04-22 17:26 37.85715 -3.62736 32832 ft 445 kts 356°
2026-04-22 17:27 37.88811 -3.62711 33205 ft 444 kts 356°
2026-04-22 17:27 37.91907 -3.62686 33541 ft 443 kts 356°
2026-04-22 17:27 37.95001 -3.62662 33804 ft 444 kts 356°
2026-04-22 17:27 37.98067 -3.62638 34097 ft 443 kts 356°
2026-04-22 17:28 38.01148 -3.62613 34414 ft 441 kts 356°
2026-04-22 17:28 38.04211 -3.62588 34695 ft 440 kts 356°
2026-04-22 17:28 38.07254 -3.62564 34932 ft 441 kts 356°
2026-04-22 17:28 38.10323 -3.62540 35172 ft 440 kts 356°
2026-04-22 17:29 38.13399 -3.62515 35454 ft 439 kts 356°
2026-04-22 17:29 38.16463 -3.62450 35699 ft 440 kts 359°
2026-04-22 17:29 38.19529 -3.62225 35879 ft 442 kts
2026-04-22 17:29 38.22560 -3.61921 36122 ft 442 kts
2026-04-22 17:30 38.25634 -3.61584 36402 ft 440 kts
2026-04-22 17:30 38.28677 -3.61251 36654 ft 439 kts
2026-04-22 17:30 38.31733 -3.60927 36862 ft 440 kts
2026-04-22 17:30 38.34792 -3.60614 37078 ft 439 kts
2026-04-22 17:31 38.37802 -3.60313 37329 ft 438 kts
2026-04-22 17:31 38.40841 -3.60015 37559 ft 438 kts
2026-04-22 17:31 38.43896 -3.59717 37752 ft 438 kts
2026-04-22 17:31 38.46941 -3.59420 37950 ft 437 kts
2026-04-22 17:32 38.53022 -3.58829 37961 ft 440 kts
2026-04-22 17:32 38.59118 -3.58231 37950 ft 436 kts
2026-04-22 17:33 38.65121 -3.57641 37954 ft 433 kts
2026-04-22 17:33 38.71130 -3.57050 37957 ft 431 kts
2026-04-22 17:34 38.77113 -3.56462 37958 ft 430 kts
2026-04-22 17:34 38.83057 -3.55876 37959 ft 430 kts
2026-04-22 17:35 38.89052 -3.55285 37961 ft 432 kts
2026-04-22 17:35 38.95081 -3.54688 37964 ft 435 kts
2026-04-22 17:36 39.01093 -3.54093 37961 ft 437 kts
2026-04-22 17:36 39.07192 -3.53491 37968 ft 440 kts
2026-04-22 17:37 39.13282 -3.52891 37960 ft 442 kts
2026-04-22 17:37 39.19450 -3.52280 37960 ft 444 kts
2026-04-22 17:38 39.25593 -3.51671 37961 ft 445 kts
2026-04-22 17:38 39.31734 -3.50475 37985 ft 448 kts 12°
2026-04-22 17:39 39.37770 -3.48394 37972 ft 448 kts 13°
2026-04-22 17:40 39.46769 -3.45252 37965 ft 447 kts 12°
2026-04-22 17:40 39.52792 -3.43217 37967 ft 446 kts 12°
2026-04-22 17:41 39.58801 -3.41205 37966 ft 445 kts 12°
2026-04-22 17:41 39.64382 -3.39337 37971 ft 444 kts 12°
2026-04-22 17:42 39.70319 -3.37346 37964 ft 443 kts 12°
2026-04-22 17:42 39.75296 -3.35673 37975 ft 442 kts 12°
2026-04-22 17:43 39.82259 -3.33328 37980 ft 442 kts 12°
2026-04-22 17:43 39.88224 -3.31314 37978 ft 441 kts 12°
2026-04-22 17:44 39.94132 -3.29317 37977 ft 441 kts 12°
2026-04-22 17:44 40.00072 -3.27305 37990 ft 441 kts 12°
2026-04-22 17:45 40.06035 -3.25281 37980 ft 441 kts 12°
2026-04-22 17:45 40.11987 -3.23258 37983 ft 442 kts 12°
2026-04-22 17:46 40.17920 -3.21238 37988 ft 442 kts 12°
2026-04-22 17:46 40.23889 -3.19201 37991 ft 443 kts 12°
2026-04-22 17:47 40.29853 -3.17163 37987 ft 444 kts 12°
2026-04-22 17:47 40.35815 -3.15121 37993 ft 444 kts 12°
2026-04-22 17:48 40.40785 -3.13417 37990 ft 445 kts 12°
2026-04-22 17:48 40.47818 -3.11000 37991 ft 446 kts 12°
2026-04-22 17:49 40.53795 -3.08942 37997 ft 446 kts 12°
2026-04-22 17:49 40.59801 -3.06870 37977 ft 446 kts 12°
2026-04-22 17:50 40.64805 -3.05141 37998 ft 446 kts 12°
2026-04-22 17:50 40.71808 -3.02717 37972 ft 446 kts 12°
2026-04-22 17:51 40.77828 -3.00628 37993 ft 445 kts 12°
2026-04-22 17:51 40.83792 -2.98555 37982 ft 444 kts 12°
2026-04-22 17:52 40.89779 -2.96470 38001 ft 443 kts 12°
2026-04-22 17:52 40.94740 -2.94740 37993 ft 443 kts 12°
2026-04-22 17:53 41.00682 -2.92664 38003 ft 441 kts 12°
2026-04-22 17:53 41.06590 -2.90596 37995 ft 441 kts 12°
2026-04-22 17:54 41.12531 -2.88513 38004 ft 440 kts 12°
2026-04-22 17:54 41.18425 -2.86442 37991 ft 441 kts 12°
2026-04-22 17:55 41.24357 -2.84354 37996 ft 441 kts 12°
2026-04-22 17:55 41.30301 -2.82258 37987 ft 441 kts 12°
2026-04-22 17:56 41.36207 -2.80171 37974 ft 442 kts 12°
2026-04-22 17:56 41.42170 -2.78060 37971 ft 442 kts 12°
2026-04-22 17:57 41.48133 -2.75945 37978 ft 442 kts 12°
2026-04-22 17:57 41.54055 -2.73841 37988 ft 442 kts 12°
2026-04-22 17:58 41.60005 -2.71723 37972 ft 443 kts 12°
2026-04-22 17:58 41.65977 -2.69593 37971 ft 443 kts 12°
2026-04-22 17:59 41.71914 -2.67471 37974 ft 444 kts 12°
2026-04-22 17:59 41.77895 -2.65329 37990 ft 444 kts 12°
2026-04-22 18:00 41.82865 -2.63547 37981 ft 444 kts 12°
2026-04-22 18:00 41.89829 -2.61044 37995 ft 444 kts 12°
2026-04-22 18:01 41.95803 -2.58892 38009 ft 444 kts 12°
2026-04-22 18:01 42.01768 -2.56740 38008 ft 445 kts 12°
2026-04-22 18:02 42.07766 -2.54571 38011 ft 445 kts 12°
2026-04-22 18:02 42.13719 -2.52415 38021 ft 445 kts 12°
2026-04-22 18:03 42.19721 -2.50236 38033 ft 445 kts 12°
2026-04-22 18:03 42.25685 -2.48067 38022 ft 445 kts 12°
2026-04-22 18:04 42.31685 -2.45880 38034 ft 444 kts 12°
2026-04-22 18:04 42.37635 -2.43707 38023 ft 443 kts 12°
2026-04-22 18:05 42.43550 -2.41543 38030 ft 442 kts 12°
2026-04-22 18:05 42.49491 -2.39366 38028 ft 441 kts 12°
2026-04-22 18:06 42.55428 -2.37185 38038 ft 440 kts 12°
2026-04-22 18:06 42.61322 -2.35016 38042 ft 440 kts 12°
2026-04-22 18:07 42.67222 -2.32841 38047 ft 440 kts 12°
2026-04-22 18:07 42.73146 -2.30653 38052 ft 440 kts 12°
2026-04-22 18:08 42.79080 -2.28456 38081 ft 441 kts 12°
2026-04-22 18:08 42.84988 -2.26265 38077 ft 442 kts 12°
2026-04-22 18:09 42.90954 -2.24048 38073 ft 443 kts 12°
2026-04-22 18:09 42.96863 -2.21847 38079 ft 443 kts 12°
2026-04-22 18:10 43.02825 -2.19622 38095 ft 443 kts 12°
2026-04-22 18:10 43.08785 -2.17394 38089 ft 443 kts 12°
2026-04-22 18:11 43.14704 -2.15176 38083 ft 443 kts 12°
2026-04-22 18:11 43.20654 -2.12942 38085 ft 443 kts 12°
2026-04-22 18:12 43.26602 -2.10704 38104 ft 442 kts 11°
2026-04-22 18:12 43.31511 -2.08854 38107 ft 442 kts 11°
2026-04-22 18:13 43.38447 -2.06235 38090 ft 441 kts 11°
2026-04-22 18:13 43.44372 -2.03992 38101 ft 440 kts 11°
2026-04-22 18:14 43.50255 -2.01761 38097 ft 440 kts 11°
2026-04-22 18:14 43.55899 -1.99616 38099 ft 440 kts 11°
2026-04-22 18:15 43.61802 -1.97368 38106 ft 439 kts 11°
2026-04-22 18:15 43.67616 -1.94827 38092 ft 442 kts 17°
2026-04-22 18:16 43.73327 -1.91590 38088 ft 444 kts 19°
2026-04-22 18:16 43.79022 -1.88269 38092 ft 443 kts 18°
2026-04-22 18:17 43.84697 -1.85011 38083 ft 443 kts 18°
2026-04-22 18:17 43.90434 -1.81754 38073 ft 443 kts 18°
2026-04-22 18:18 43.96115 -1.78538 38076 ft 443 kts 18°
2026-04-22 18:18 44.01826 -1.75300 38083 ft 443 kts 18°
2026-04-22 18:19 44.07528 -1.72059 38061 ft 443 kts 18°
2026-04-22 18:19 44.13216 -1.68818 38059 ft 443 kts 18°
2026-04-22 18:20 44.18935 -1.65552 38057 ft 443 kts 18°
2026-04-22 18:20 44.24615 -1.62302 38057 ft 442 kts 18°
2026-04-22 18:21 44.30317 -1.59032 38047 ft 442 kts 18°
2026-04-22 18:21 44.35989 -1.55773 38050 ft 442 kts 18°
2026-04-22 18:22 44.41692 -1.52489 38065 ft 442 kts 18°
2026-04-22 18:22 44.47394 -1.49198 38054 ft 442 kts 18°
2026-04-22 18:23 44.53057 -1.45923 38048 ft 442 kts 18°
2026-04-22 18:23 44.58697 -1.42655 38054 ft 441 kts 18°
2026-04-22 18:24 44.67200 -1.37714 38052 ft 441 kts 18°
2026-04-22 18:25 44.75695 -1.32762 38047 ft 440 kts 18°
2026-04-22 18:25 44.81316 -1.29477 38040 ft 439 kts 18°
2026-04-22 18:26 44.89779 -1.24518 38029 ft 439 kts 18°
2026-04-22 18:26 44.95402 -1.21215 38031 ft 439 kts 18°
2026-04-22 18:27 45.01043 -1.17893 38035 ft 439 kts 18°
2026-04-22 18:27 45.06698 -1.14557 38036 ft 439 kts 18°
2026-04-22 18:28 45.12344 -1.11218 38024 ft 439 kts 17°
2026-04-22 18:28 45.17955 -1.07892 38021 ft 439 kts 17°
2026-04-22 18:29 45.23596 -1.04542 38023 ft 439 kts 17°
2026-04-22 18:29 45.29216 -1.01198 38021 ft 438 kts 17°
2026-04-22 18:30 45.37511 -0.96247 38020 ft 437 kts 17°
2026-04-22 18:31 45.43135 -0.92882 38018 ft 437 kts 17°
2026-04-22 18:31 45.48704 -0.89543 38019 ft 436 kts 17°
2026-04-22 18:32 45.53389 -0.86728 38017 ft 436 kts 17°
2026-04-22 18:32 45.59896 -0.82810 38031 ft 436 kts 17°
2026-04-22 18:33 45.65478 -0.79441 38018 ft 436 kts 17°
2026-04-22 18:33 45.71081 -0.76052 38026 ft 436 kts 17°
2026-04-22 18:34 45.76682 -0.72657 38019 ft 437 kts 17°
2026-04-22 18:34 45.82280 -0.69256 38015 ft 437 kts 17°
2026-04-22 18:35 45.87855 -0.65861 38021 ft 436 kts 17°
2026-04-22 18:35 45.93427 -0.62461 38025 ft 436 kts 17°
2026-04-22 18:36 45.99013 -0.59046 38036 ft 436 kts 17°
2026-04-22 18:36 46.04613 -0.55614 38025 ft 436 kts 17°
2026-04-22 18:37 46.10171 -0.52200 38035 ft 436 kts 17°
2026-04-22 18:37 46.14831 -0.49332 38033 ft 436 kts 17°
2026-04-22 18:38 46.21334 -0.45321 38041 ft 436 kts 17°
2026-04-22 18:38 46.26000 -0.42436 38045 ft 436 kts 17°
2026-04-22 18:39 46.34376 -0.37244 38048 ft 436 kts 17°
2026-04-22 18:39 46.39939 -0.33787 38050 ft 437 kts 17°
2026-04-22 18:40 46.45530 -0.30305 38065 ft 437 kts 17°
2026-04-22 18:40 46.51096 -0.26829 38065 ft 437 kts 17°
2026-04-22 18:41 46.56687 -0.23331 38067 ft 437 kts 17°
2026-04-22 18:41 46.62286 -0.19820 38079 ft 438 kts 17°
2026-04-22 18:42 46.67895 -0.16295 38077 ft 438 kts 17°
2026-04-22 18:42 46.73463 -0.12787 38086 ft 438 kts 17°
2026-04-22 18:43 46.79067 -0.09248 38083 ft 438 kts 17°
2026-04-22 18:43 46.84649 -0.05715 38088 ft 437 kts 17°
2026-04-22 18:44 46.90238 -0.02170 38088 ft 437 kts 17°
2026-04-22 18:44 46.95681 0.01291 38102 ft 436 kts 18°
2026-04-22 18:45 47.01209 0.04813 38105 ft 435 kts 18°
2026-04-22 18:45 47.06760 0.08358 38102 ft 434 kts 18°
2026-04-22 18:46 47.12246 0.11870 38099 ft 432 kts 18°
2026-04-22 18:46 47.17768 0.15413 38107 ft 430 kts 18°
2026-04-22 18:47 47.23256 0.18941 38115 ft 430 kts 18°
2026-04-22 18:47 47.28703 0.22451 38116 ft 429 kts 18°
2026-04-22 18:48 47.34178 0.25986 38128 ft 428 kts 18°
2026-04-22 18:48 47.39643 0.29524 38139 ft 428 kts 18°
2026-04-22 18:49 47.45071 0.33044 38130 ft 429 kts 18°
2026-04-22 18:49 47.50546 0.36604 38135 ft 429 kts 18°
2026-04-22 18:50 47.56001 0.40159 38139 ft 430 kts 18°
2026-04-22 18:50 47.61488 0.43744 38152 ft 431 kts 18°
2026-04-22 18:51 47.66972 0.47335 38151 ft 430 kts 18°
2026-04-22 18:51 47.72454 0.50933 38149 ft 430 kts 18°
2026-04-22 18:52 47.77900 0.54516 38148 ft 429 kts 18°
2026-04-22 18:52 47.83361 0.58117 38163 ft 428 kts 18°
2026-04-22 18:53 47.88802 0.61713 38158 ft 427 kts 18°
2026-04-22 18:53 47.94232 0.65310 38161 ft 426 kts 18°
2026-04-22 18:54 47.99607 0.68878 38167 ft 425 kts 18°
2026-04-22 18:54 48.05010 0.72473 38171 ft 424 kts 19°
2026-04-22 18:55 48.10402 0.76069 38179 ft 424 kts 19°
2026-04-22 18:55 48.15759 0.79649 38182 ft 424 kts 19°
2026-04-22 18:56 48.21169 0.83274 38183 ft 424 kts 19°
2026-04-22 18:56 48.26413 0.86795 38190 ft 425 kts 19°
2026-04-22 18:57 48.31814 0.90430 38191 ft 427 kts 19°
2026-04-22 18:57 48.37245 0.94094 38188 ft 428 kts 19°
2026-04-22 18:58 48.42686 0.97773 38191 ft 429 kts 19°
2026-04-22 18:58 48.47991 1.01370 38203 ft 429 kts 19°
2026-04-22 18:59 48.53421 1.05059 38193 ft 430 kts 19°
2026-04-22 18:59 48.58888 1.08783 38204 ft 430 kts 19°
2026-04-22 19:00 48.64343 1.12507 38203 ft 430 kts 19°
2026-04-22 19:00 48.69818 1.16254 38213 ft 430 kts 19°
2026-04-22 19:01 48.75046 1.19839 38211 ft 430 kts 19°
2026-04-22 19:01 48.80372 1.23501 38209 ft 430 kts 19°
2026-04-22 19:02 48.85829 1.27262 38213 ft 430 kts 19°
2026-04-22 19:02 48.91278 1.31026 38218 ft 429 kts 19°
2026-04-22 19:03 48.96559 1.35282 38230 ft 435 kts 28°
2026-04-22 19:03 49.01490 1.40430 38223 ft 435 kts 30°
2026-04-22 19:04 49.06431 1.45642 38215 ft 433 kts 29°
2026-04-22 19:04 49.11263 1.50661 38230 ft 432 kts 29°
2026-04-22 19:05 49.16246 1.55802 38219 ft 431 kts 29°
2026-04-22 19:05 49.21180 1.60896 38235 ft 429 kts 29°
2026-04-22 19:06 49.25752 1.65629 38231 ft 429 kts 29°
2026-04-22 19:06 49.28238 1.68205 38005 ft 434 kts 29°
2026-04-22 19:07 49.33226 1.73391 37576 ft 429 kts 29°
2026-04-22 19:07 49.35696 1.75966 37369 ft 428 kts 29°
2026-04-22 19:07 49.38159 1.78534 37089 ft 429 kts 29°
2026-04-22 19:07 49.40642 1.81123 36603 ft 433 kts 29°
2026-04-22 19:08 49.43144 1.83738 36215 ft 434 kts 29°
2026-04-22 19:08 49.45605 1.86315 35815 ft 431 kts 28°
2026-04-22 19:08 49.48070 1.88901 35420 ft 426 kts 28°
2026-04-22 19:08 49.50513 1.91467 35296 ft 424 kts 28°
2026-04-22 19:09 49.52870 1.94280 35260 ft 431 kts 37°
2026-04-22 19:09 49.56482 1.99600 35265 ft 433 kts 39°
2026-04-22 19:10 49.61347 2.06988 35266 ft 433 kts 38°
2026-04-22 19:10 49.65675 2.13483 35266 ft 433 kts 38°
2026-04-22 19:11 49.69998 2.19933 35130 ft 427 kts 38°
2026-04-22 19:11 49.72141 2.23131 34498 ft 429 kts 38°
2026-04-22 19:11 49.74294 2.26345 33946 ft 428 kts 38°
2026-04-22 19:11 49.76406 2.29502 33427 ft 425 kts 38°
2026-04-22 19:12 49.78526 2.32678 32896 ft 423 kts 38°
2026-04-22 19:12 49.80633 2.35837 32376 ft 421 kts 38°
2026-04-22 19:12 49.82728 2.38983 31859 ft 418 kts 38°
2026-04-22 19:12 49.84815 2.42121 31355 ft 416 kts 38°
2026-04-22 19:13 49.86883 2.45235 30863 ft 413 kts 38°
2026-04-22 19:13 49.88941 2.48337 30376 ft 411 kts 38°
2026-04-22 19:13 49.90989 2.51426 29798 ft 409 kts 38°
2026-04-22 19:13 49.93028 2.54505 29107 ft 408 kts 38°
2026-04-22 19:14 49.95032 2.57535 28478 ft 408 kts 39°
2026-04-22 19:14 49.97061 2.60611 27835 ft 407 kts 40°
2026-04-22 19:14 49.99083 2.63689 27204 ft 406 kts 40°
2026-04-22 19:14 50.01101 2.66769 26591 ft 404 kts 41°
2026-04-22 19:15 50.02432 2.68803 26189 ft 404 kts 41°
2026-04-22 19:15 50.05048 2.72807 25386 ft 391 kts 41°
2026-04-22 19:15 50.06965 2.75746 24833 ft 381 kts 43°
2026-04-22 19:15 50.08830 2.78607 24311 ft 372 kts 43°
2026-04-22 19:16 50.10657 2.81410 23807 ft 363 kts 43°
2026-04-22 19:16 50.12437 2.84145 23198 ft 356 kts 43°
2026-04-22 19:16 50.14191 2.86841 22595 ft 349 kts 44°
2026-04-22 19:16 50.15886 2.89448 22020 ft 342 kts 44°
2026-04-22 19:17 50.17563 2.92032 21500 ft 335 kts 44°
2026-04-22 19:17 50.19206 2.94564 20981 ft 329 kts 45°
2026-04-22 19:17 50.20823 2.97061 20481 ft 325 kts 45°
2026-04-22 19:17 50.22431 2.99547 19988 ft 326 kts 45°
2026-04-22 19:18 50.23970 3.01927 19543 ft 328 kts 45°
2026-04-22 19:18 50.25581 3.04423 19116 ft 327 kts 46°
2026-04-22 19:18 50.27201 3.06933 18691 ft 327 kts 46°
2026-04-22 19:18 50.28818 3.09444 18214 ft 326 kts 46°
2026-04-22 19:19 50.30389 3.11884 17723 ft 318 kts 46°
2026-04-22 19:19 50.31942 3.14298 17238 ft 311 kts 46°
2026-04-22 19:19 50.33463 3.16667 16761 ft 304 kts 46°
2026-04-22 19:19 50.34947 3.18980 16300 ft 299 kts 46°
2026-04-22 19:20 50.36410 3.21260 15846 ft 295 kts 46°
2026-04-22 19:20 50.37851 3.23522 15392 ft 291 kts 49°
2026-04-22 19:20 50.38926 3.26168 14932 ft 286 kts 68°
2026-04-22 19:20 50.39604 3.29088 14512 ft 283 kts 71°
2026-04-22 19:21 50.40220 3.32002 14078 ft 281 kts 72°
2026-04-22 19:21 50.40822 3.34895 13601 ft 278 kts 72°
2026-04-22 19:21 50.41421 3.37776 13128 ft 276 kts 72°
2026-04-22 19:21 50.42018 3.40634 12666 ft 274 kts 72°
2026-04-22 19:22 50.42412 3.42514 12356 ft 273 kts 72°
2026-04-22 19:22 50.43005 3.45329 11905 ft 272 kts 72°
2026-04-22 19:22 50.43600 3.48133 11456 ft 270 kts 72°
2026-04-22 19:22 50.44196 3.50919 11014 ft 268 kts 72°
2026-04-22 19:23 50.44989 3.54589 10438 ft 267 kts 72°
2026-04-22 19:23 50.45382 3.56416 10151 ft 266 kts 74°
2026-04-22 19:23 50.45581 3.59268 9660 ft 263 kts 92°
2026-04-22 19:23 50.45476 3.62142 9202 ft 262 kts 93°
2026-04-22 19:24 50.45383 3.64992 8739 ft 261 kts 92°
2026-04-22 19:24 50.45309 3.67837 8281 ft 260 kts 92°
2026-04-22 19:24 50.45252 3.70677 7830 ft 259 kts 91°
2026-04-22 19:24 50.45208 3.73509 7390 ft 259 kts 91°
2026-04-22 19:25 50.45171 3.76316 6969 ft 263 kts 91°
2026-04-22 19:25 50.45139 3.79189 6524 ft 262 kts 91°
2026-04-22 19:25 50.45112 3.82001 6360 ft 251 kts 91°
2026-04-22 19:25 50.45087 3.84674 6317 ft 240 kts 91°
2026-04-22 19:26 50.45064 3.87220 6302 ft 229 kts 91°
2026-04-22 19:26 50.45043 3.89626 6309 ft 225 kts 91°
2026-04-22 19:26 50.45021 3.92086 6314 ft 225 kts 91°
2026-04-22 19:26 50.44969 3.94538 6320 ft 226 kts 99°
2026-04-22 19:27 50.44500 3.96922 6218 ft 230 kts 110°
2026-04-22 19:27 50.43948 3.99247 6053 ft 231 kts 109°
2026-04-22 19:27 50.43433 4.01476 5792 ft 232 kts 109°
2026-04-22 19:27 50.42894 4.03854 5545 ft 229 kts 109°
2026-04-22 19:28 50.42371 4.06186 5278 ft 222 kts 109°
2026-04-22 19:28 50.41870 4.08449 4955 ft 219 kts 109°
2026-04-22 19:28 50.41377 4.10688 4534 ft 214 kts 109°
2026-04-22 19:28 50.40903 4.12841 4115 ft 208 kts 108°
2026-04-22 19:29 50.40437 4.14957 3708 ft 203 kts 108°
2026-04-22 19:29 50.39982 4.17028 3290 ft 198 kts 107°
2026-04-22 19:29 50.39544 4.19013 2890 ft 193 kts 107°
2026-04-22 19:29 50.39220 4.21007 2534 ft 183 kts 87°
2026-04-22 19:30 50.39338 4.22285 2512 ft 168 kts 77°
2026-04-22 19:30 50.39905 4.24393 2513 ft 156 kts 68°
2026-04-22 19:30 50.40329 4.25848 2509 ft 154 kts 68°
2026-04-22 19:30 50.40759 4.27322 2504 ft 144 kts 68°
2026-04-22 19:31 50.41044 4.28297 2486 ft 139 kts 68°
2026-04-22 19:31 50.41433 4.29627 2491 ft 132 kts 68°
2026-04-22 19:31 50.41822 4.30977 2308 ft 143 kts 68°
2026-04-22 19:31 50.42250 4.32423 2150 ft 147 kts 68°
2026-04-22 19:32 50.42686 4.33879 2022 ft 147 kts 68°
2026-04-22 19:32 50.43089 4.35347 1813 ft 150 kts 69°
2026-04-22 19:32 50.43456 4.36645 1754 ft 145 kts 68°
2026-04-22 19:32 50.43842 4.37983 1583 ft 146 kts 67°
2026-04-22 19:33 50.44245 4.39368 1409 ft 142 kts 66°
2026-04-22 19:33 50.44615 4.40594 1235 ft 137 kts 66°
2026-04-22 19:33 50.45009 4.41948 1003 ft 135 kts 66°
2026-04-22 19:33 50.45398 4.43299 756 ft 136 kts 63°
2026-04-22 19:34 50.45787 4.44618 628 ft 129 kts 67°
2026-04-22 19:34 50.46111 4.45757 625 ft 96 kts 65°
2026-04-22 19:34 50.46299 4.46385 617 ft 53 kts 65°
2026-04-22 19:34 50.46419 4.46783 614 ft 21 kts 63°
2026-04-22 19:35 50.46487 4.46883 616 ft 7 kts
2026-04-22 19:35 50.46532 4.46876 616 ft 7 kts 344°
2026-04-22 19:35 50.46573 4.46851 615 ft 4 kts 335°
2026-04-22 19:35 50.46599 4.46833 616 ft 4 kts 335°
2026-04-22 19:36 50.46622 4.46814 618 ft 4 kts 333°
2026-04-22 19:36 50.46646 4.46795 624 ft 4 kts 333°
2026-04-22 19:36 50.46670 4.46778 623 ft 4 kts 339°
2026-04-22 19:36 50.46697 4.46777 612 ft 4 kts
2026-04-22 19:37 50.46724 4.46782 612 ft 4 kts 359°
2026-04-22 19:37 50.46750 4.46765 616 ft 4 kts 334°
2026-04-22 19:37 50.46770 4.46749 621 ft 0 kts 335°